This is the latest recevied weather packets stored in our database for station/object W8KVG. If no packets are shown the sender has not sent any weather packets the latest 10 day(s).
| Time | Temp. | Humidity | Pressure | Rain* | Wind** | Luminosity | Snow |
|---|---|---|---|---|---|---|---|
| 1777878132 | 8.33° C | 70% | 1011.3 hPa | 0 mm | - | 0 W/m² | - |
| 1777877828 | 7.78° C | 72% | 1011.4 hPa | 0 mm | - | 0 W/m² | - |
| 1777877526 | 7.78° C | 74% | 1011.5 hPa | 0 mm | - | 0 W/m² | - |
| 1777877222 | 7.78° C | 73% | 1011.6 hPa | 0 mm | - | 0 W/m² | - |
| 1777876919 | 7.78° C | 74% | 1011.6 hPa | 0 mm | - | 0 W/m² | - |
| 1777876617 | 7.78° C | 72% | 1011.6 hPa | 0 mm | - | 0 W/m² | - |
| 1777876315 | 7.78° C | 75% | 1011.8 hPa | 0 mm | - | 0 W/m² | - |
| 1777876010 | 7.22° C | 74% | 1011.9 hPa | 0 mm | - | 0 W/m² | - |
| 1777875706 | 7.22° C | 76% | 1012 hPa | 0 mm | - | 0 W/m² | - |
| 1777875404 | 7.22° C | 77% | 1012.2 hPa | 0 mm | - | 0 W/m² | - |
| 1777875100 | 7.22° C | 78% | 1012.1 hPa | 0 mm | - | 0 W/m² | - |
| 1777874797 | 7.22° C | 78% | 1012.2 hPa | 0 mm | - | 0 W/m² | - |
| 1777874492 | 7.22° C | 79% | 1012 hPa | 0 mm | - | 0 W/m² | - |
| 1777874190 | 7.22° C | 79% | 1012.1 hPa | 0 mm | - | 0 W/m² | - |
| 1777873887 | 7.22° C | 79% | 1012.3 hPa | 0 mm | - | 0 W/m² | - |
| 1777873584 | 7.22° C | 80% | 1012.2 hPa | 0 mm | - | 0 W/m² | - |
| 1777873281 | 7.22° C | 80% | 1012.2 hPa | 0 mm | - | 0 W/m² | - |
| 1777872978 | 7.22° C | 80% | 1012 hPa | 0 mm | - | 0 W/m² | - |
| 1777872675 | 7.22° C | 79% | 1012.1 hPa | 0 mm | - | 0 W/m² | - |
| 1777872372 | 6.67° C | 75% | 1012.3 hPa | 0 mm | - | 0 W/m² | - |
| 1777872071 | 6.67° C | 76% | 1012.4 hPa | 0 mm | - | 0 W/m² | - |
| 1777871767 | 6.67° C | 75% | 1012.2 hPa | 0 mm | - | 0 W/m² | - |
| 1777871479 | 6.67° C | 74% | 1012.4 hPa | 0 mm | - | 0 W/m² | - |
| 1777871160 | 6.67° C | 73% | 1012.4 hPa | 0 mm | - | 0 W/m² | - |
| 1777870857 | 6.67° C | 74% | 1012.5 hPa | 0 mm | - | 0 W/m² | - |
* Rain latest hour (hover to see other rain measurements)
** Current wind speed in m/s (hover to see current wind gust speed)